TimeEDT,TemperatureF,Dew PointF,Humidity,Sea Level PressureIn,VisibilityMPH,Wind Direction,Wind SpeedMPH,Gust SpeedMPH,PrecipitationIn,Events,Conditions,WindDirDegrees,DateUTC
12:53 AM,66.0,51.1,59,29.69,10.0,Variable,4.6,-,N/A,,Partly Cloudy,0,2012-10-28 04:53:00
2:53 AM,64.9,50.0,58,29.67,10.0,North,5.8,-,N/A,,Clear,350,2012-10-28 06:53:00
3:53 AM,64.9,50.0,58,29.67,10.0,Variable,5.8,-,N/A,,Clear,0,2012-10-28 07:53:00
4:53 AM,64.0,52.0,65,29.66,10.0,Variable,5.8,-,N/A,,Clear,0,2012-10-28 08:53:00
5:53 AM,63.0,52.0,67,29.67,10.0,NNW,4.6,-,N/A,,Clear,330,2012-10-28 09:53:00
6:53 AM,62.1,51.1,67,29.67,10.0,NNW,4.6,-,N/A,,Clear,340,2012-10-28 10:53:00
7:53 AM,61.0,50.0,67,29.68,10.0,Calm,Calm,-,N/A,,Clear,0,2012-10-28 11:53:00
8:53 AM,62.1,50.0,65,29.69,10.0,Calm,Calm,-,N/A,,Clear,0,2012-10-28 12:53:00
9:53 AM,64.0,50.0,60,29.69,10.0,Variable,5.8,-,N/A,,Clear,0,2012-10-28 13:53:00
10:53 AM,66.0,48.9,54,29.69,10.0,Variable,5.8,-,N/A,,Clear,0,2012-10-28 14:53:00
11:53 AM,70.0,48.9,47,29.68,10.0,North,6.9,-,N/A,,Clear,360,2012-10-28 15:53:00
1:53 PM,73.0,48.0,41,29.63,10.0,Variable,5.8,-,N/A,,Clear,0,2012-10-28 17:53:00
2:53 PM,73.9,46.9,38,29.61,10.0,Variable,4.6,-,N/A,,Clear,0,2012-10-28 18:53:00
3:53 PM,75.9,48.0,37,29.61,10.0,Variable,4.6,-,N/A,,Partly Cloudy,0,2012-10-28 19:53:00
4:53 PM,75.0,48.0,38,29.60,10.0,Variable,4.6,-,N/A,,Scattered Clouds,0,2012-10-28 20:53:00
5:53 PM,72.0,48.0,43,29.60,10.0,NNW,3.5,-,N/A,,Overcast,340,2012-10-28 21:53:00
6:53 PM,71.1,48.0,44,29.61,10.0,Calm,Calm,-,N/A,,Overcast,0,2012-10-28 22:53:00
7:53 PM,68.0,46.0,45,29.64,10.0,Variable,6.9,20.7,N/A,,Overcast,0,2012-10-28 23:53:00
8:53 PM,63.0,46.9,56,29.66,10.0,NNW,10.4,17.3,N/A,,Overcast,330,2012-10-29 00:53:00
9:53 PM,60.1,46.0,60,29.68,10.0,NW,8.1,20.7,N/A,,Overcast,320,2012-10-29 01:53:00
10:53 PM,57.9,41.0,53,29.70,10.0,NNW,11.5,21.9,N/A,,Overcast,340,2012-10-29 02:53:00
11:53 PM,57.0,39.0,51,29.70,10.0,NW,10.4,18.4,N/A,,Overcast,310,2012-10-29 03:53:00